Tracking 20621 objects as of 30-Mar-2020
HD Live streaming from Space Station
objects crossing your sky now

H-2A R/B(2)

Track H-2A R/B(2) now!


NORAD ID: 27518
Int'l Code: 2002-042D
Perigee: 418.7 km
Apogee: 34,438.4 km
Inclination: 28.8 °
Period: 609.0 minutes
Semi major axis: 23799 km
RCS: 24.23 m2 (large)
Launch date: September 10, 2002
Source: Japan (JPN)
Launch site: TANEGASHIMA SPACE CENTER (TNSTA)

Note: This is a ROCKET BODY
aabbcc
Your satellite tracking list
Your tracking list is empty




NASA's NSSDC Master Catalog

Two Line Element Set (TLE):
1 27518U 02042D   20089.86560332 -.00000149  00000-0  11742-4 0  9997
2 27518  28.7536 323.6965 7147149  18.0107 357.9932  2.36455983151606
Source of the keplerian elements: AFSPC